Location: Estes Par
(40.3770°N, 105.5210°W)
Time: 03:31:24
(UTC-07:00)

OTV 5 (USA 277) - Pass Details

Date: 09 October 2017
Orbit: 404 x 417 km, 43.0° (Epoch: 07 September)

Event Time Altitude Azimuth Distance (km) Brightness Sun altitude
Rises 20:05:05 0° 237° (WSW) 2,339 ? -18.7°
Reaches altitude 10° 20:07:13 10° 232° (SW) 1,479 ? -19.1°
Enters shadow 20:10:06 47° 182° (S) 551 ? -19.7°
